Weather History for Price, UT

Change the Weather History Date:

Friday, July 5, 2013

  Actual Average Record
Temperature  
Mean Temperature 76 °F -  
Max Temperature 93 °F 87 °F 100 °F (1985)
Min Temperature 60 °F 56 °F 38 °F (1971)
Cooling Degree Days 12    
Growing Degree Days 26 (Base 50)    
Moisture  
Dew Point 47 °F    
Average Humidity 44    
Maximum Humidity 82    
Minimum Humidity 13    
Precipitation  
Precipitation 0.17 in - - ()
Sea Level Pressure  
Sea Level Pressure 29.77 in    
Wind  
Wind Speed 14 mph (WNW)    
Max Wind Speed 30 mph    
Max Gust Speed 43 mph    
Visibility 10 miles    
Events Rain , Thunderstorm    
Averages and records for this station are not official NWS values.
T = Trace of Precipitation, MM = Missing Value Source: NWS Daily Summary

Daily Weather History Graph

Daily Weather History Graph

Search for Another Location

Airport:

Trip Planner

Search our weather history database for the weather conditions in past years. The results will help you decide how hot, cold, wet, or windy it might be!

Date:

Astronomy

Jul. 05, 2013 Rise Set
Actual Time 6:01 AM MDT 8:53 PM MDT
Civil Twilight 5:29 AM MDT 9:25 PM MDT
Nautical Twilight 4:48 AM MDT 10:06 PM MDT
Astronomical Twilight 4:01 AM MDT 10:52 PM MDT
Moon 4:03 AM MDT (7/5) 6:51 PM MDT (7/5)
Length of Visible Light 15h 56m
Length of Day
14h 52m
Waning Crescent, 6% of the Moon is Illuminated
Jul 5
Waning Crescent
Jul 8
New
Jul 15
First Quarter
Jul 22
Full
Jul 29
Last Quarter

Hourly Weather History & Observations

Time (MDT) Temp. Dew Point Humidity Pressure Visibility Wind Dir Wind Speed Gust Speed Precip Events Conditions
12:53 AM 73.0 °F 46.9 °F 39% 29.68 in 10.0 mi North 9.2 mph - N/A   Clear
1:53 AM 75.9 °F 50.0 °F 40% 29.68 in 10.0 mi West 24.2 mph 33.4 mph N/A   Mostly Cloudy
2:53 AM 70.0 °F 48.9 °F 47% 29.73 in 10.0 mi West 26.5 mph 36.8 mph 0.00 in Rain , Thunderstorm Light Thunderstorms and Rain
3:04 AM 66.2 °F 51.8 °F 60% 30.07 in 10.0 mi West 25.3 mph 42.6 mph 0.00 in Rain , Thunderstorm Light Rain
3:11 AM 64.4 °F 53.6 °F 68% 30.08 in 10.0 mi WNW 17.3 mph 31.1 mph 0.00 in Rain Rain
3:53 AM 64.0 °F 53.1 °F 67% 29.74 in 10.0 mi North 16.1 mph 24.2 mph 0.03 in Rain Light Rain
4:53 AM 64.9 °F 52.0 °F 63% 29.73 in 10.0 mi WNW 8.1 mph - 0.00 in   Partly Cloudy
5:53 AM 66.0 °F 51.1 °F 59% 29.71 in 10.0 mi WNW 4.6 mph - N/A   Clear
6:53 AM 64.9 °F 53.1 °F 65% 29.72 in 10.0 mi West 6.9 mph - N/A   Clear
7:53 AM 68.0 °F 55.0 °F 63% 29.72 in 10.0 mi North 3.5 mph - N/A   Clear
8:53 AM 73.0 °F 51.1 °F 46% 29.73 in 10.0 mi Calm Calm - N/A   Clear
9:53 AM 75.0 °F 53.1 °F 46% 29.74 in 10.0 mi SSE 8.1 mph - N/A   Clear
10:53 AM 79.0 °F 50.0 °F 36% 29.73 in 10.0 mi Calm Calm - N/A   Clear
11:53 AM 84.0 °F 48.0 °F 28% 29.71 in 10.0 mi WSW 5.8 mph - N/A   Clear
12:53 PM 88.0 °F 46.0 °F 23% 29.67 in 10.0 mi WNW 9.2 mph 17.3 mph N/A   Clear
1:53 PM 91.9 °F 41.0 °F 17% 29.63 in 10.0 mi West 12.7 mph 20.7 mph N/A   Clear
2:53 PM 91.0 °F 41.0 °F 17% 29.64 in 10.0 mi West 12.7 mph 17.3 mph N/A   Clear
3:53 PM 93.0 °F 37.9 °F 15% 29.63 in 10.0 mi West 17.3 mph 23.0 mph N/A   Clear
4:53 PM 91.9 °F 35.1 °F 13% 29.61 in 10.0 mi West 10.4 mph 29.9 mph N/A   Clear
5:53 PM 90.0 °F 35.1 °F 14% 29.62 in 10.0 mi West 13.8 mph 23.0 mph N/A   Clear
6:53 PM 88.0 °F 33.1 °F 14% 29.62 in 10.0 mi WSW 13.8 mph 19.6 mph N/A   Clear
7:53 PM 87.1 °F 33.1 °F 15% 29.61 in 10.0 mi Variable 3.5 mph - N/A   Clear
8:53 PM 82.0 °F 42.1 °F 24% 29.66 in 10.0 mi West 17.3 mph 26.5 mph N/A   Scattered Clouds
9:10 PM 78.8 °F 42.8 °F 28% 29.99 in 10.0 mi North 16.1 mph - N/A   Scattered Clouds
9:53 PM 70.0 °F 52.0 °F 53% 29.88 in 10.0 mi West 18.4 mph 31.1 mph 0.00 in Rain , Thunderstorm Light Thunderstorms and Rain
10:27 PM 62.6 °F 55.4 °F 77% 30.19 in 3.0 mi NNW 6.9 mph - 0.08 in Rain Heavy Rain
10:51 PM 60.8 °F 55.4 °F 82% 30.09 in 6.0 mi NE 28.8 mph 40.3 mph 0.14 in Rain Light Rain
10:53 PM 62.1 °F 55.0 °F 78% 29.84 in 8.0 mi NE 29.9 mph 40.3 mph 0.14 in Rain Light Rain
11:53 PM 62.1 °F 54.0 °F 75% 29.85 in 10.0 mi WNW 9.2 mph - 0.00 in   Clear